User: anonymous   Login
Location: LDNL
(36.4545°S, 141.6685°E)
Time: 00:24:31
(UTC+10:00)
Language:

Oscar 19 - Orbit

View from above orbital plane
View from above orbital plane
View from above satellite
View from above satellite

Ground track
Ground track

The orbit data is extracted from the following two-line orbital elements,

1 20442U 90005G   22273.87780143  .00000181  00000-0  82852-4 0  9999
2 20442  98.8070 240.4115 0011010 215.2039 144.8418 14.33089920708260
Epoch (UTC): 30 September 2022 21:04:02
Eccentricity: 0.0011010
inclination: 98.8070°
perigee height: 773 km
apogee height: 789 km
right ascension of ascending node: 240.4115°
argument of perigee: 215.2039°
revolutions per day: 14.33089920
mean anomaly at epoch: 144.8418°
orbit number at epoch: 70826

The dashed part of the orbit path shows where the satellite is in the earth's shadow,  

DLR